Hourly Data Report for July 28, 2020

OTTAWA INTL A
ONTARIO
Current Station Operator: NAVCAN

45°19'00.000" N
75°40'00.000" W
114.90 m
6106001
71628
YOW

Download Data

Hourly Data (July 2020)
Hourly Data Report for July 28, 2020
TIME Temp Definition
°C
Dew Point Definition
°C
Rel Hum Definition
%
Wind Dir Definition
10's deg

Wind Spd Definition
km/h
Visibility Definition
km
Stn Press Definition
kPa
Hmdx Definition


Wind Chill Definition


Weather Definition


00:00 24.2 20.5 80 24 13 24.1 99.03 32   LegendNANA
01:00 23.5 20.1 81 21 11 24.1 98.95 31   Cloudy
02:00 23.1 19.6 80 24 13 24.1 98.97 30   LegendNANA
03:00 23.0 18.7 76 24 17 24.1 98.97 30   LegendNANA
04:00 21.4 17.7 79 25 13 24.1 99.01 27   Mainly Clear
05:00 19.3 16.9 86 26 13 24.1 99.11     LegendNANA
06:00 20.9 17.1 78 25 17 24.1 99.17 26   LegendNANA
07:00 21.9 16.3 70 26 25 24.1 99.21 27   Clear
08:00 23.1 16.2 65 25 20 24.1 99.27 28   LegendNANA
09:00 24.6 16.5 60 27 20 24.1 99.28 30   LegendNANA
10:00 26.6 16.3 53 27 17 24.1 99.33 31   Mainly Clear
11:00 27.6 15.8 48 27 22 24.1 99.34 32   LegendNANA
12:00 28.5 14.7 42 30 24 24.1 99.33 32   LegendNANA
13:00 29.4 14.2 39 27 18 24.1 99.33 33   Mainly Clear
14:00 30.5 13.9 36 25 24 24.1 99.32 34   LegendNANA
15:00 29.0 13.7 38 26 19 24.1 99.31 32   LegendNANA
16:00 30.2 12.8 34 29 18 24.1 99.30 33   Mainly Clear
17:00 28.2 13.3 39 27 13 24.1 99.30 31   LegendNANA
18:00 28.7 12.0 35 26 23 24.1 99.33 31   LegendNANA
19:00 26.3 10.6 37 25 18 24.1 99.38 28   Mainly Clear
20:00 23.4 11.3 46 26 13 24.1 99.44 25   LegendNANA
21:00 21.6 11.8 53 26 9 24.1 99.50     LegendNANA
22:00 20.5 11.9 57 25 11 24.1 99.54     Clear
23:00 20.6 11.8 57 19 7 24.1 99.57     LegendNANA

Notes on Data Quality.

Legend

  • E = Estimated
  • M = Missing
  • NA = Not Available*
  • [empty] = Indicates an unobserved value
Date modified: